Location: Melara
(45.0500°N, 11.1833°E)
Time: 20:35:45
(UTC+00:00)

SAR-Lupe-2 - Pass Details

Date: 26 May 2022
Orbit: 480 x 482 km, 98.1° (Epoch: 30 June)

Event Time Altitude Azimuth Distance (km) Brightness Sun altitude
Rises 01:06:53 0° 17° (NNE) 2,553 8.8 -18.9°
Reaches altitude 10° 01:08:59 10° 21° (NNE) 1,668 7.5 -18.7°
Maximum altitude 01:12:31 58° 101° (ESE) 569 3.9 -18.4°
Enters shadow 01:13:34 39° 160° (SSE) 736 4.1 -18.3°
